EHI
0 0 0 0 0 0 0 0 0 0 0 0 0 0 0 0 0 0 0 0 0 0 0 0 0 0 0 0 0 0 0 0 0 0 0 0 0 0 0 0 0 0 0
0 0 0 0 0 0 0 0 0 0 0 0 0 0 0 0 0 0 0 0 0 0 0 0 0 0 0 0 0 0 0 0 0 0 0 0 0 0 0 0 0 0 0
0 0 0 0 0 0 0 0 0 0 0 0 0 0 0 0 0 0 0 0 0 0 0 0 0 0 0 0 0 0 0 0 0 0 0 0 0 0 0 0 0 0 0
0 0 0 0 0 0 0 0 0 0 0 0 0 0 0 0 0 0 0 0 0 0 0 0 0 0 0 0 0 0 0 0 0 0 0 0 0 0 0 0 0 0 0
0 0 0 0 0 0 0 0 0 0 0 0 0 0 0 0 0 0 0 0 0 0 0 0 0 0 0 0 0 0 0 0 0 0 0 0 0 0 0 0 0 0 0
0 0 0 0 0 0 0 0 0 0 0 0 0 0 0 0 0 0 0 0 0 0 0 0 0 0 0 0 0 0 0 0 0 0 0 0 0 0 0 0 0 0 0
0 0 0 0 0 0 0 0 0 0 0 0 0 0 0 0 0 0 0 0 0 0 0 0 0 0 0 0 0 0 0 0 0 0 0 0 0 0 0 0 0 0 0
0 0 0 0 0 0 0 0 0 0 0 0 0 0 0 0 0 0 0 0 0 0 0 0 0 0 0 0 0 0 0 0 0 0 0 0 0 0 0 0 0 0 0
0 0 0 0 0 0 0 0 0 0 0 0 0 0 0 0 0 0 0 0 0 0 0 0 0 0 0 0 0 0 0 0 0 0 0 0 0 0 0 0 0 0 0
0 0 0 0 0 0 0 0 0 0 0 0 0 0 0 0 0 0 0 0 0 0 0 0 0 0 0 0 0 0 0 0 0 0 0 0 0 0 0 0 0 0 0
0 0 0 0 0 0 0 0 0 0 0 0 0 0 0 0 0 0 0 0 0 0 0 0 0 0 0 0 0 0 0 0 0 0 0 0 0 0 0 0 0 0 0
0 0 0 0 0 0 0 0 0 0 0 0 0 0 0 0 0 0 0 0 0 0 0 0 0 0 0 0 0 0 0 0 0 0 0 0 0 0 0 0 0 0 0
0 0 0 0 0 0 0 0 0 0 0 0 0 0 0 0 0 0 0 0 0 0 0 0 0 0 0 0 0 0 0 0 0 0 0 0 0 0 0 0 0 0 0
0 0 0 0 0 0 0 0 0 0 0 0 0 0 0 0 0 0 0 0 0 0 0 0 0 0 0 0 0 0 0 0 0 0 0 0 0 0 0 0 0 0 0
0 0 0 0 0 0 0 0 0 0 0 0 0 0 0 0 0 0 0 0 0 0 0 0 0 0 0 0 0 0 0 0 0 0 0 0 0 0 0 0 0 0 0
0 0 0 0 0 0 0 0 0 0 0 0 0 0 0 0 0 0 0 0 0 0 0 0 0 0 0 0 0 0 0 0 0 0 0 0 0 0 0 0 0 0 0
0 0 0 0 0 0 0 0 0 0 0 0 0 0 0 0 0 0 0 0 0 0 0 0 0 0 0 0 0 0 0 0 0 0 0 0 0 0 0 0 0 0 0
0 0 0 0 0 0 0 0 0 0 0 0 0 0 0 0 0 0 0 0 0 0 0 0 0 0 0 0 0 0 0 0 0 0 0 0 0 0 0 0 0 0 0
0 0 0 0 0 0 0 0 0 0 0 0 0 0 0 0 0 0 0 0 0 0 0 0 0 0 0 0 0 0 0 0 0 0 0 0 0 0 0 0 0 0 0
0 0 0 0 0 0 0 0 0 0 0 0 0 0 0 0 0 0 0 0 0 0 0 0 0 0 0 0 0 0 0 0 0 0 0 0 0 0 0 0 0 0 0
0 0 0 0 0 0 0 0 0 0 0 0 0 0 0 0 0 0 0 0 0 0 0 0 0 0 0 0 0 0 0 0 0 0 0 0 0 0 0 0 0 0 0
0 0 0 0 0 0 0 0 0 0 0 0 0 0 0 0 0 0 0 0 0 0 0 0 0 0 0 0 0 0 0 0 0 0 0 0 0 0 0 0 0 0 0
0 0 0 0 0 0 0 0 0 0 0 0 0 0 0 0 0 0 0 0 0 0 0 0 0 0 0 0 0 0 0 0 0 0 0 0 0 0 0 0 0 0 0
0 0 0 0 0 0 0 0 0 0 0 0 0 0 0 0 0 0 0 0 0 0 0 0 0 0 0 0 0 0 0 0 0 0 0 0 0 0 0 0 0 0 0
0 0 0 0 0 0 0 0 0 0 0 0 0 0 0 0 0 0 0 0 0 0 0 0 0 0 0 0 0 0 0 0 0 0 0 0 0 0 0 0 0 0 0
0 0 0 0 0 0 0 0 0 0 0 0 0 0 0 0 0 0 0 0 0 0 0 0 0 0 0 0 0 0 0 0 0 0 0 0 0 0 0 0 0 0 0
Wind_Speed
16 15 17 17 16 17 18 19 19 18 15 13 12 12 11 10 9 8 10 11 10 11 9 7 7 7 6 6 5 4 3 2 2 2 1 2 2 2 2 2 2 3 3
12 13 15 16 18 20 21 21 20 20 18 15 13 10 9 7 7 6 9 11 11 11 10 9 8 7 6 6 6 4 3 2 3 3 2 1 3 3 2 2 2 3 2
16 15 16 18 18 20 22 20 22 20 19 15 9 7 5 4 5 8 9 11 12 12 10 10 9 8 7 7 7 6 6 4 3 3 4 3 4 2 2 2 2 2 2
15 15 16 17 19 21 21 21 22 20 19 17 14 15 12 11 11 10 9 9 11 12 11 11 10 9 8 7 8 7 5 5 4 2 2 3 3 2 2 3 2 2 3
14 15 16 18 19 19 19 20 20 20 19 19 19 18 13 11 7 7 9 9 9 11 11 11 11 10 8 8 8 7 6 5 5 4 3 2 1 2 2 3 3 3 3
14 14 14 14 16 17 17 18 20 20 20 20 20 19 17 13 11 10 11 10 7 8 11 11 11 10 9 9 8 8 8 7 6 4 4 4 3 4 3 4 3 3 3
13 13 13 14 15 16 18 18 21 21 20 21 20 20 19 17 16 14 13 11 8 9 12 11 11 9 9 9 8 8 8 8 7 6 5 4 4 3 3 3 3 3 3
12 13 14 15 16 18 18 19 21 20 21 21 20 19 17 14 12 13 11 12 11 10 10 12 11 10 10 9 8 7 8 7 7 7 6 4 4 3 3 4 3 2 3
11 12 12 13 15 17 18 19 20 19 20 21 20 17 17 15 14 13 11 10 8 7 10 11 10 10 10 10 9 7 8 7 7 7 7 5 4 4 3 3 4 4 3
9 10 10 11 13 15 16 17 19 20 19 20 18 15 16 16 13 12 13 12 11 9 10 11 11 10 10 10 9 7 6 8 7 5 6 6 4 4 3 3 3 4 4
7 8 8 9 9 10 13 15 16 16 16 17 17 16 15 15 13 12 13 12 11 11 12 12 11 11 10 10 10 9 8 9 7 6 7 7 5 4 4 3 3 3 3
5 5 6 5 6 8 11 13 14 15 16 15 14 15 14 14 14 13 13 12 11 11 11 11 11 11 11 10 11 10 9 10 9 8 8 7 5 5 4 3 4 4 4
4 3 3 5 6 7 9 11 12 13 13 13 14 13 13 14 15 14 12 12 12 11 11 11 11 11 11 11 10 10 9 9 9 8 8 7 7 6 4 4 4 3 2
3 3 3 4 5 6 8 9 10 10 10 11 13 14 14 15 14 13 12 12 12 12 12 11 11 10 10 10 9 9 8 8 7 7 7 7 7 7 6 4 4 3 2
4 3 3 3 3 3 5 7 8 9 10 11 12 13 12 11 11 11 11 11 11 11 11 10 9 9 8 9 10 9 8 8 7 5 5 5 6 7 6 4 4 4 3
5 5 3 2 3 4 5 6 7 8 10 11 11 10 10 10 11 11 11 11 10 10 10 10 10 9 8 11 14 11 8 7 7 6 5 4 5 6 6 6 5 5 4
6 5 4 4 4 4 4 6 7 7 9 9 9 10 10 11 11 10 11 11 11 10 10 10 10 9 10 13 14 14 8 7 7 6 5 4 4 5 4 4 4 3 3
7 6 5 4 3 2 2 3 5 7 8 8 8 9 10 10 10 10 11 10 9 9 9 9 9 8 9 13 14 14 8 6 6 6 6 6 5 5 5 4 3 1 1
5 5 5 4 3 1 1 3 5 6 7 7 8 9 10 10 10 10 10 8 8 8 8 8 8 8 8 13 15 13 7 5 5 5 5 6 5 7 8 5 4 2 0
6 5 4 3 2 1 1 4 5 6 7 7 7 8 9 10 11 10 9 7 7 7 7 7 7 8 8 12 15 14 6 6 5 4 4 6 6 8 9 6 5 3 2
7 5 4 3 2 1 2 4 5 6 5 5 6 6 7 8 9 8 7 8 7 7 7 7 5 6 8 12 15 14 7 7 6 5 4 4 8 8 8 6 4 4 3
7 5 4 4 3 1 3 3 4 3 4 5 6 6 6 6 7 8 8 8 8 8 7 7 5 4 6 8 12 14 11 9 7 5 4 5 9 8 8 5 4 5 4
6 5 4 4 3 1 2 4 3 3 5 6 6 6 6 6 7 9 9 8 7 7 7 6 6 5 4 6 11 13 13 12 6 5 8 9 10 8 5 5 6 5 3
6 5 4 4 4 3 2 2 2 4 5 6 6 6 6 6 6 6 7 7 7 7 7 7 7 6 5 5 6 6 7 9 7 6 8 10 10 6 5 4 3 2 2
6 4 4 4 5 3 2 2 3 4 5 5 5 5 5 6 6 5 5 6 5 8 9 8 8 9 8 8 11 9 7 7 7 7 4 3 3 3 2 2 2 2 2
6 5 5 5 5 3 3 3 4 5 6 6 6 5 5 5 5 5 4 4 5 8 9 10 9 6 9 15 15 14 13 14 15 8 5 4 4 4 3 3 2 1 1
Wind_Direction
212 202 198 193 188 186 184 184 183 181 177 179 180 182 188 187 188 189 186 184 184 181 180 178 177 177 179 179 169 155 157 165 141 100 8 330 309 260 243 228 217 222 220
216 204 198 194 191 189 188 187 186 184 184 187 187 186 181 182 184 184 187 187 184 184 185 180 182 182 176 175 176 161 154 170 160 140 124 322 326 306 273 250 226 229 225
213 206 198 196 194 193 191 189 189 187 187 182 171 157 149 149 173 189 194 193 189 188 187 186 183 183 181 186 187 177 167 178 197 169 155 169 229 283 303 271 248 236 233
214 208 200 196 196 196 193 191 189 188 187 180 178 176 181 188 193 190 191 190 190 189 188 187 187 187 187 187 190 186 178 168 187 204 197 182 167 177 279 300 278 253 243
213 209 204 199 197 195 192 192 189 189 186 185 185 186 192 194 179 174 181 187 191 192 191 189 190 191 192 191 189 185 185 181 180 179 172 178 177 175 187 258 283 286 256
216 212 207 199 197 194 192 190 189 190 187 187 189 191 193 186 176 182 187 191 191 193 195 192 193 194 193 193 192 189 189 191 186 183 174 171 177 193 192 222 246 261 269
215 212 206 199 197 194 192 190 190 191 189 189 192 195 195 191 190 190 192 191 191 197 198 194 194 194 194 191 188 190 194 192 191 194 198 197 201 180 178 195 232 254 275
216 213 208 201 198 195 192 191 192 191 189 191 194 195 194 193 197 194 192 195 199 200 192 193 194 194 191 190 188 192 195 193 198 201 199 201 209 190 181 180 185 253 282
221 219 213 206 200 195 194 192 192 192 191 192 193 193 193 194 195 192 191 194 196 189 186 191 193 192 190 190 187 197 197 193 201 204 201 205 208 198 200 188 178 188 245
227 223 217 209 205 199 194 192 192 193 191 191 192 192 193 195 192 187 192 194 192 185 182 188 192 192 192 191 190 194 194 194 202 197 198 208 207 202 199 200 201 197 206
230 229 222 211 203 196 191 191 192 192 190 192 191 190 191 191 188 190 194 193 188 186 186 189 191 193 194 193 194 198 192 198 201 196 201 211 201 200 204 201 204 210 201
241 233 224 202 191 191 189 189 191 191 191 190 189 190 188 186 188 193 192 188 188 188 188 187 190 193 194 193 197 199 196 198 202 202 201 210 198 204 203 201 210 215 210
292 271 232 204 195 194 190 188 189 190 188 185 185 186 186 187 191 191 187 186 186 185 185 187 192 194 193 193 196 196 196 199 202 200 203 205 193 205 203 202 211 215 212
296 273 239 219 206 196 190 187 187 184 179 180 184 187 189 190 190 187 184 183 183 184 186 188 190 191 191 191 190 191 193 197 199 199 200 198 196 203 199 200 207 200 199
323 304 261 227 209 199 193 186 185 180 176 178 184 190 188 184 181 180 180 180 181 183 182 182 184 185 186 188 185 186 187 191 192 190 192 193 192 193 189 188 191 183 193
310 306 290 236 210 206 199 189 185 181 176 180 185 181 176 176 178 179 177 176 179 178 177 181 183 184 187 183 180 179 181 182 183 183 178 179 184 184 183 182 178 176 186
317 304 292 263 234 216 204 196 186 172 173 178 176 173 172 175 177 173 173 176 177 175 176 180 180 183 184 176 175 174 171 175 180 177 173 172 176 170 169 166 153 169 185
317 308 299 288 273 236 202 186 165 165 169 171 171 170 169 170 168 169 174 176 173 174 176 176 177 175 175 169 167 164 166 167 172 175 175 172 170 169 158 151 152 170 210
299 298 298 291 283 249 167 149 155 159 162 169 171 171 168 166 166 170 174 171 166 169 171 170 169 170 169 165 162 158 164 161 163 165 164 164 169 167 155 150 157 163 245
316 314 313 315 308 294 152 151 160 163 174 176 170 167 165 166 170 171 167 161 161 164 160 161 168 168 167 164 160 157 158 159 157 152 159 164 163 162 158 160 164 179 202
318 318 320 311 289 261 156 164 167 183 180 159 151 158 162 164 164 159 156 151 149 148 151 152 155 162 163 162 162 160 161 163 159 160 163 163 156 153 156 157 169 180 164
318 319 322 317 313 267 158 169 189 182 145 142 146 152 155 153 151 151 150 148 149 150 151 148 147 152 158 161 165 165 163 157 158 163 161 156 151 149 150 152 150 139 125
310 314 315 315 317 307 190 185 187 145 143 143 147 147 146 148 153 155 154 152 155 156 158 160 163 159 153 156 155 160 159 153 148 150 151 147 144 142 145 141 136 131 131
305 313 322 317 308 305 276 204 165 149 147 152 151 149 150 151 151 154 157 161 164 163 164 166 166 159 154 155 153 155 152 145 137 134 137 134 130 123 124 126 127 130 148
298 296 294 289 285 288 277 214 166 152 152 154 154 153 154 155 152 152 162 165 175 175 170 172 166 165 171 174 162 157 157 155 147 132 118 118 128 132 129 123 121 123 121
295 293 290 286 281 270 258 222 180 164 160 160 161 159 155 153 150 142 116 103 142 155 159 158 156 158 156 154 157 154 150 147 145 134 142 149 154 161 162 159 151 143 147